Location: Hardenberg
(52.5670°N, 6.6170°E)
Time: 08:20:56
(UTC+02:00)

ISS - Pass Details

Date: 26 May 2021
Orbit: 417 x 422 km, 51.6° (Epoch: 12 June)

Event Time Altitude Azimuth Distance (km) Brightness Sun altitude
Rises 23:00:05 0° 281° (W) 2,368 0.8 -9.2°
Reaches altitude 10° 23:02:16 10° 273° (W) 1,503 -0.4 -9.4°
Maximum altitude 23:05:26 38° 204° (SSW) 653 -3.0 -9.7°
Enters shadow 23:07:53 15° 139° (SE) 1,239 -2.0 -9.9°
